Hourly Data Report for October 04, 2017

All times are specified in Local Standard Time (LST). Add 1 hour to adjust for Daylight Saving Time where and when it is observed.

RANKIN INLET A
NUNAVUT

62°48'38.000" N
92°06'53.000" W
32.30 m
2303405
71083
YRT

Download Data

Hourly Data (October 2017)
Hourly Data Report for October 4, 2017
Temp Definition
°C
Dew Point Temp Definition
°C
Rel Hum Definition
%
Wind Dir Definition
10's deg

Wind Spd Definition
km/h
Visibility Definition
km
Stn Press Definition
kPa
Hmdx Definition


Wind Chill Definition


Weather Definition


TIME
00:00 Legend Double Dagger -2.4 -5.7 78 31 31 24.1 100.31   -10 Snow
01:00 Legend Double Dagger -3.0 -7.5 71 30 31 24.1 100.30   -11 Snow
02:00 Legend Double Dagger -3.9 -7.1 78 31 32 24.1 100.27   -12 Snow
03:00 Legend Double Dagger -4.4 -7.8 78 30 27 24.1 100.23   -12 Snow
04:00 Legend Double Dagger -3.9 -7.2 78 30 29 24.1 100.20   -11 Snow
05:00 Legend Double Dagger -3.6 -6.7 79 30 32 24.1 100.14   -11 Snow
06:00 Legend Double Dagger -4.6 -8.6 74 31 33 24.1 100.13   -13 Snow
07:00 Legend Double Dagger -4.6 -8.1 77 31 37 16.1 100.08   -13 Snow,Blowing Snow
08:00 Legend Double Dagger -4.6 -7.7 79 32 39 16.1 100.04   -13 Snow,Blowing Snow
09:00 Legend Double Dagger -3.9 -7.9 74 32 40 16.1 99.99   -13 Blowing Snow
10:00 Legend Double Dagger -3.9 -7.4 77 31 44 4.8 99.96   -13 Snow Showers
11:00 Legend Double Dagger -3.5 -7.1 76 31 43 9.7 99.89   -12 Snow Showers,Blowing Snow
12:00 Legend Double Dagger -2.9 -6.9 74 31 44 16.1 99.83   -12 Snow Showers,Blowing Snow
13:00 Legend Double Dagger -3.0 -6.9 74 31 45 16.1 99.77   -12 Moderate Snow Showers,Blowing Snow
14:00 Legend Double Dagger -3.1 -7.0 74 31 50 24.1 99.77   -12 Blowing Snow
15:00 Legend Double Dagger -2.7 -6.8 73 31 46 24.1 99.73   -12 Snow Showers,Blowing Snow
16:00 Legend Double Dagger -2.8 -6.8 74 30 48 24.1 99.70   -12 Blowing Snow
17:00 Legend Double Dagger -2.8 -6.9 74 30 45 16.1 99.68   -12 Snow Showers,Blowing Snow
18:00 Legend Double Dagger -3.2 -6.7 77 31 55 16.1 99.63   -13 Snow Showers,Blowing Snow
19:00 Legend Double Dagger -3.6 -7.0 77 30 52 16.1 99.53   -13 Snow Showers,Blowing Snow
20:00 Legend Double Dagger -3.6 -6.9 78 30 55 24.1 99.50   -13 Blowing Snow
21:00 Legend Double Dagger -3.7 -6.3 82 30 47 24.1 99.45   -13 Blowing Snow
22:00 Legend Double Dagger -3.5 -5.7 85 30 50 12.9 99.41   -13 Snow,Blowing Snow
23:00 Legend Double Dagger -3.6 -5.9 84 30 55 12.9 99.37   -13 Snow,Blowing Snow

Notes on Data Quality.

Legend

  • E = Estimated
  • M = Missing
  • NA = Not Available
  • ‡ = Partner data that is not subject to review by the National Climate Archives
Date modified: